CW7841 Weather Reports


Display with metric or nautical units.
time (UTC)temp
F
wind
direction
speed
MPH
gust
MPH
rain 1hr
in
rain 24hr
in
rain mn
in
humidity
%
barometer
mb
20170816152446 88 38 0.0 4.0 0.00 2.03 0.00 78 1019.8
20170816151946 87 357 0.0 4.0 0.00 2.03 0.00 79 1019.8
20170816151446 87 46 0.0 4.0 0.00 2.03 0.00 79 1019.7
20170816150446 87 0 0.0 0.0 0.00 2.03 0.00 79 1019.8
20170816144946 86 33 0.0 3.0 0.00 2.03 0.00 82 1019.7
20170816144447 86 34 0.0 3.0 0.00 2.03 0.00 83 1019.6
20170816143446 85 34 0.0 0.0 0.00 2.03 0.00 84 1019.5
20170816142946 84 353 0.0 0.0 0.00 2.03 0.00 88 1019.6
20170816141946 84 303 0.0 0.0 0.00 2.03 0.00 90 1019.6
20170816141447 83 304 0.0 0.0 0.00 2.03 0.00 91 1019.1
20170816140446 82 306 0.0 0.0 0.00 2.03 0.00 92 1019.2
20170816135947 82 306 0.0 0.0 0.00 2.03 0.00 92 1019.3
20170816135447 82 305 0.0 0.0 0.00 2.03 0.00 94 1019.3
20170816134447 82 210 0.0 0.0 0.00 2.03 0.00 95 1019.3
20170816133947 82 207 0.0 0.0 0.00 2.03 0.00 96 1019.4
20170816133447 82 207 0.0 0.0 0.00 2.03 0.00 96 1019.2
20170816132947 82 209 0.0 0.0 0.00 2.03 0.00 96 1019.4
20170816131947 81 210 0.0 0.0 0.00 2.03 0.00 96 1019.2
20170816130947 81 210 0.0 0.0 0.00 2.03 0.00 97 1019.3
20170816130447 81 208 0.0 0.0 0.00 2.03 0.00 97 1019.1
20170816125947 80 203 0.0 0.0 0.00 2.03 0.00 97 1019.2
20170816125447 80 210 0.0 0.0 0.00 2.03 0.00 97 1019.1
20170816124947 80 208 0.0 0.0 0.00 2.03 0.00 96 1019.0
20170816124447 80 210 0.0 0.0 0.00 2.03 0.00 96 1019.2
20170816123447 80 209 0.0 0.0 0.00 2.03 0.00 96 1018.8
20170816120947 79 210 0.0 0.0 0.00 2.03 0.00 96 1018.6
20170816120447 79 209 0.0 0.0 0.00 2.03 0.00 96 1018.6
20170816115447 78 210 0.0 0.0 0.00 2.03 0.00 96 1018.6
20170816113447 78 210 0.0 0.0 0.00 2.03 0.00 95 1018.2
20170816112447 78 210 0.0 0.0 0.00 2.03 0.00 96 1018.0
20170816111447 78 210 0.0 0.0 0.00 2.03 0.00 96 1017.8
20170816110947 78 210 0.0 0.0 0.00 2.03 0.00 95 1017.7
20170816110447 78 210 0.0 0.0 0.00 2.03 0.00 95 1017.7
20170816105947 78 210 0.0 0.0 0.00 2.03 0.00 95 1017.6
20170816104947 78 210 0.0 0.0 0.00 2.03 0.00 95 1017.6
20170816103447 78 210 0.0 0.0 0.00 2.03 0.00 95 1017.4
20170816102447 78 209 0.0 0.0 0.00 2.03 0.00 95 1017.5
20170816101449 78 209 0.0 0.0 0.00 2.03 0.00 95 1017.2
20170816095947 78 209 0.0 0.0 0.00 2.03 0.00 95 1017.1
20170816094947 78 209 0.0 0.0 0.00 2.03 0.00 95 1017.0
20170816093447 78 209 0.0 0.0 0.00 2.03 0.00 95 1016.7
20170816092947 78 209 0.0 0.0 0.00 2.03 0.00 95 1016.7
20170816091947 78 209 0.0 0.0 0.00 2.03 0.00 95 1016.7
20170816091447 78 209 0.0 0.0 0.00 2.03 0.00 95 1016.9
20170816090947 78 209 0.0 0.0 0.00 2.03 0.00 95 1016.9
20170816090447 78 209 0.0 0.0 0.00 2.03 0.00 95 1016.8
20170816084447 78 209 0.0 0.0 0.00 2.03 0.00 95 1016.6
20170816083448 78 209 0.0 0.0 0.00 2.03 0.00 95 1016.4
20170816082947 78 209 0.0 0.0 0.00 2.03 0.00 95 1016.6
20170816082447 78 209 0.0 0.0 0.00 2.03 0.00 95 1016.7
20170816080947 78 210 0.0 0.0 0.00 2.03 0.00 95 1016.4
20170816074948 78 210 0.0 0.0 0.00 2.03 0.00 95 1016.5
20170816074447 78 210 0.0 0.0 0.00 2.03 0.00 94 1016.6
20170816073947 78 210 0.0 0.0 0.00 2.03 0.00 95 1016.7
20170816072947 78 210 0.0 0.0 0.00 2.03 0.00 95 1016.6
20170816072447 78 210 0.0 0.0 0.00 2.03 0.00 95 1016.7
20170816070948 78 210 0.0 0.0 0.00 2.03 0.00 95 1016.8
20170816070448 78 210 0.0 0.0 0.00 2.03 0.00 95 1016.8
20170816065448 78 210 0.0 0.0 0.00 2.03 0.00 95 1016.6
20170816064447 78 210 0.0 0.0 0.00 2.03 0.00 94 1016.5
20170816063947 78 210 0.0 0.0 0.00 2.03 0.00 94 1016.4
20170816062948 78 210 0.0 0.0 0.00 2.03 0.00 94 1016.7
20170816062448 78 210 0.0 0.0 0.00 2.03 0.00 94 1016.7
20170816061948 78 210 0.0 0.0 0.00 2.03 0.00 94 1016.7
20170816061448 78 210 0.0 0.0 0.00 2.03 0.00 94 1016.8
20170816055448 78 210 0.0 0.0 0.00 2.03 0.00 94 1016.8
20170816052948 78 210 0.0 0.0 0.00 2.03 0.00 93 1017.3
20170816051948 78 211 0.0 0.0 0.00 2.03 0.00 94 1017.2
20170816051448 78 210 0.0 0.0 0.00 2.03 0.00 94 1017.3
20170816050448 78 210 0.0 0.0 0.00 2.03 0.00 93 1017.3
20170816044948 78 211 0.0 0.0 0.00 2.03 0.00 93 1017.5
20170816044448 78 211 0.0 0.0 0.00 2.03 0.00 93 1017.6
20170816043448 78 211 0.0 0.0 0.00 2.03 0.00 93 1017.4
20170816042948 78 211 0.0 0.0 0.00 2.03 0.00 93 1017.4
20170816041448 78 211 0.0 0.0 0.00 2.03 0.00 93 1017.7
20170816040948 78 211 0.0 0.0 0.00 2.03 0.00 94 1017.5
20170816034449 78 211 0.0 0.0 0.19 2.03 2.03 93 1017.3
20170816033448 78 189 0.0 0.0 0.19 2.03 2.03 93 1017.3
20170816032948 78 226 0.0 0.0 0.19 2.03 2.03 93 1017.3
20170816031948 78 197 0.0 0.0 0.19 2.03 2.03 93 1017.7
20170816030948 78 176 0.0 0.0 0.19 2.03 2.03 93 1017.8
20170816025948 78 169 0.0 11.0 0.43 2.03 2.03 93 1018.0
20170816024949 78 169 0.0 11.0 0.43 2.03 2.03 93 1017.7
20170816023448 78 164 0.0 11.0 0.43 2.03 2.03 93 1017.9
20170816022948 78 178 0.0 11.0 0.43 2.03 2.03 93 1017.8
20170816021948 78 193 9.0 11.0 0.42 2.02 2.02 93 1018.0
20170816021448 78 171 4.0 11.0 0.41 2.01 2.01 93 1017.6
20170816020948 78 199 3.0 11.0 0.38 1.98 1.98 93 1017.7
20170816015448 77 218 0.0 11.0 1.78 1.77 1.78 89 1018.3
20170816014948 77 182 0.0 11.0 1.73 1.73 1.73 89 1017.8
20170816014448 77 204 0.0 11.0 1.71 1.71 1.71 88 1017.9
20170816011948 77 128 0.0 11.0 1.63 1.63 1.63 86 1016.6
20170816011448 78 128 0.0 11.0 1.63 1.62 1.63 86 1016.8
20170816010948 78 138 3.0 11.0 1.62 1.62 1.62 86 1017.0
20170816005449 80 172 8.0 20.0 1.51 1.48 1.51 87 1016.6
20170816004948 81 200 5.0 20.0 1.35 1.34 1.35 86 1016.7
20170816004448 81 166 6.0 20.0 1.18 1.18 1.18 84 1016.5
20170816003449 84 207 5.0 9.0 0.77 0.74 0.77 82 1017.1
20170816001948 86 123 7.0 7.0 0.21 0.19 0.21 84 1017.0
20170816001448 86 116 0.0 5.0 0.11 0.08 0.11 84 1016.7
20170816000449 86 116 0.0 4.0 0.00 0.00 0.00 80 1016.5
20170815234449 85 100 0.0 0.0 0.00 0.00 0.00 77 1016.0
20170815233949 85 100 0.0 0.0 0.00 0.00 0.00 76 1016.1
20170815233449 85 99 0.0 0.0 0.00 0.00 0.00 76 1016.1
20170815232448 85 86 0.0 0.0 0.00 0.00 0.00 73 1015.9
20170815231449 85 1 0.0 0.0 0.00 0.00 0.00 72 1015.8
20170815230949 85 1 0.0 0.0 0.00 0.00 0.00 72 1015.7
20170815230448 85 1 0.0 0.0 0.00 0.00 0.00 72 1015.5
20170815224948 85 1 0.0 10.0 0.00 0.27 0.00 71 1015.8
20170815224448 85 5 0.0 10.0 0.00 0.27 0.00 70 1015.5
20170815223948 86 96 0.0 10.0 0.00 0.27 0.00 70 1015.9
20170815222949 86 64 0.0 10.0 0.00 0.27 0.00 77 1015.7
20170815222449 86 44 0.0 10.0 0.00 0.27 0.00 75 1015.8
20170815221449 88 352 3.0 10.0 0.00 0.27 0.00 76 1016.1
20170815215948 89 131 3.0 11.0 0.00 1.11 0.00 75 1015.4
20170815215449 89 74 3.0 11.0 0.00 1.11 0.00 75 1015.3
20170815214948 89 133 0.0 11.0 0.00 1.11 0.00 74 1014.9
20170815213949 89 135 2.0 11.0 0.00 1.11 0.00 73 1015.2
20170815212949 89 166 2.0 11.0 0.00 1.11 0.00 75 1015.0
20170815211449 90 118 4.0 11.0 0.00 1.11 0.00 75 1015.1
20170815205949 90 131 0.0 12.0 0.00 1.11 0.00 75 1015.2
20170815202949 90 111 3.0 10.0 0.00 1.11 0.00 76 1015.1
20170815202449 90 132 2.0 10.0 0.00 1.11 0.00 75 1015.2
20170815200949 90 119 7.0 10.0 0.00 1.11 0.00 76 1015.5
20170815200449 90 119 3.0 7.0 0.00 1.11 0.00 76 1015.4
20170815194949 90 98 2.0 11.0 0.00 1.11 0.00 74 1015.9
20170815193949 90 135 0.0 11.0 0.00 1.11 0.00 75 1015.7
20170815192449 90 123 2.0 11.0 0.00 1.11 0.00 77 1015.7
20170815191949 90 119 6.0 9.0 0.00 1.11 0.00 76 1015.9
20170815190449 90 132 2.0 8.0 0.00 1.11 0.00 76 1015.9
20170815185949 89 119 2.0 8.0 0.00 1.11 0.00 77 1016.0
20170815184949 90 56 0.0 7.0 0.00 1.11 0.00 75 1016.0
20170815184449 90 46 0.0 7.0 0.00 1.11 0.00 76 1016.0
20170815183949 91 42 3.0 6.0 0.00 1.11 0.00 73 1016.1
20170815183449 92 50 0.0 4.0 0.00 1.11 0.00 72 1016.0
20170815182949 93 41 0.0 4.0 0.00 1.11 0.00 68 1016.1
20170815182449 94 183 0.0 4.0 0.00 1.11 0.00 63 1016.2
20170815181449 94 230 0.0 0.0 0.00 1.11 0.00 62 1016.4
20170815175949 93 232 0.0 6.0 0.00 1.11 0.00 64 1016.4
20170815175449 93 272 6.0 6.0 0.00 1.11 0.00 63 1016.6
20170815174449 93 225 0.0 5.0 0.00 1.11 0.00 65 1016.8
20170815173949 93 225 0.0 5.0 0.00 1.11 0.00 65 1016.7
20170815172949 93 192 0.0 5.0 0.00 1.11 0.00 66 1016.9
20170815172449 92 192 0.0 5.0 0.00 1.11 0.00 66 1016.9
20170815171949 92 192 0.0 5.0 0.00 1.11 0.00 65 1016.9
20170815171449 92 173 0.0 4.0 0.00 1.11 0.00 68 1017.0
20170815164950 91 284 0.0 4.0 0.00 1.11 0.00 70 1017.2
20170815163449 90 292 0.0 4.0 0.00 1.11 0.00 70 1017.4
20170815162949 90 290 0.0 4.0 0.00 1.11 0.00 70 1017.4
20170815160449 89 305 0.0 2.0 0.00 1.11 0.00 73 1017.2
20170815155950 89 253 0.0 4.0 0.00 1.11 0.00 73 1017.4
20170815153950 88 273 0.0 3.0 0.00 1.11 0.00 76 1017.5
20170815153450 88 300 0.0 3.0 0.00 1.11 0.00 75 1017.4
20170815152950 88 291 0.0 0.0 0.00 1.11 0.00 80 1017.2